WIF7XV ENTC-ENHF

Flight info

Callsign WIF7XV
Flight time N/A
Altitude 17000
Route LITPI DCT UBELO
Aircraft DH8B/M-SDFGRY/SB1

Departure

Time 2026-04-28 16:04
Airport Tromsø Airport (ENTC)

Arrival

Time N/A
Airport Hammerfest Airport (ENHF)
Time Latitude Longitude Altitude Speed Heading
2026-04-28 15:58 69.68117 18.91028 3 ft 0 kts 282°
2026-04-28 16:01 69.68118 18.91018 3 ft 0 kts 286°
2026-04-28 16:02 69.68125 18.91005 3 ft 2 kts 24°
2026-04-28 16:02 69.68118 18.91103 3 ft 8 kts 106°
2026-04-28 16:02 69.68103 18.91253 3 ft 8 kts 108°
2026-04-28 16:02 69.68076 18.91446 3 ft 13 kts 109°
2026-04-28 16:03 69.68051 18.91693 4 ft 9 kts 119°
2026-04-28 16:03 69.68046 18.91700 4 ft 0 kts 189°
2026-04-28 16:03 69.67685 18.91450 6 ft 98 kts 194°
2026-04-28 16:03 69.66921 18.90906 363 ft 122 kts 188°
2026-04-28 16:04 69.66110 18.91323 1079 ft 124 kts 153°
2026-04-28 16:04 69.65553 18.93297 1584 ft 145 kts 115°
2026-04-28 16:04 69.65189 18.96211 2019 ft 167 kts 94°
2026-04-28 16:04 69.65488 18.99406 2500 ft 175 kts 53°
2026-04-28 16:05 69.66327 19.01980 3086 ft 177 kts 44°
2026-04-28 16:05 69.67153 19.04513 3731 ft 176 kts 45°
2026-04-28 16:05 69.67977 19.07071 4317 ft 177 kts 49°
2026-04-28 16:05 69.68671 19.09962 4892 ft 179 kts 52°
2026-04-28 16:06 69.69382 19.12848 5493 ft 179 kts 53°
2026-04-28 16:06 69.70099 19.15773 6086 ft 180 kts 52°
2026-04-28 16:06 69.70815 19.18699 6676 ft 181 kts 52°
2026-04-28 16:06 69.71527 19.21615 7268 ft 181 kts 52°
2026-04-28 16:07 69.72245 19.24558 7858 ft 182 kts 51°
2026-04-28 16:07 69.72974 19.27539 8480 ft 182 kts 50°
2026-04-28 16:07 69.74413 19.33448 9643 ft 182 kts 49°
2026-04-28 16:08 69.75131 19.36389 10228 ft 182 kts 49°
2026-04-28 16:08 69.75852 19.39368 10830 ft 182 kts 49°
2026-04-28 16:08 69.76581 19.42364 11404 ft 184 kts 49°
2026-04-28 16:09 69.78033 19.48364 12520 ft 186 kts 48°
2026-04-28 16:09 69.78766 19.51399 13069 ft 187 kts 47°
2026-04-28 16:09 69.79508 19.54475 13608 ft 188 kts 47°
2026-04-28 16:10 69.81002 19.60679 14622 ft 191 kts 47°
2026-04-28 16:10 69.81754 19.63809 15160 ft 192 kts 47°
2026-04-28 16:10 69.83271 19.70142 16184 ft 194 kts 47°
2026-04-28 16:11 69.84815 19.76594 17130 ft 197 kts 47°
2026-04-28 16:11 69.86475 19.83531 17369 ft 230 kts 48°
2026-04-28 16:12 69.88374 19.91548 17339 ft 243 kts 49°
2026-04-28 16:12 69.89323 19.95571 17332 ft 242 kts 49°
2026-04-28 16:13 69.91219 20.03606 17341 ft 241 kts 49°
2026-04-28 16:13 69.92165 20.07625 17336 ft 241 kts 49°
2026-04-28 16:13 69.94031 20.15591 17336 ft 240 kts 49°
2026-04-28 16:14 69.95897 20.23584 17338 ft 238 kts 49°
2026-04-28 16:14 69.97747 20.31526 17348 ft 237 kts 49°
2026-04-28 16:15 69.99593 20.39482 17352 ft 237 kts 49°
2026-04-28 16:15 70.00508 20.43427 17358 ft 236 kts 49°
2026-04-28 16:15 70.01427 20.47416 17362 ft 236 kts 49°
2026-04-28 16:16 70.03256 20.55343 17362 ft 236 kts 48°
2026-04-28 16:16 70.04163 20.59295 17361 ft 236 kts 49°
2026-04-28 16:17 70.06000 20.67312 17332 ft 237 kts 49°
2026-04-28 16:17 70.06907 20.71277 17324 ft 238 kts 49°
2026-04-28 16:17 70.07825 20.75309 17315 ft 238 kts 49°
2026-04-28 16:17 70.08740 20.79317 17307 ft 238 kts 49°
2026-04-28 16:18 70.09657 20.83367 17316 ft 237 kts 49°
2026-04-28 16:18 70.10270 20.86060 17322 ft 236 kts 50°